Regional Weather Roundup
Issued by NWS

Home | Current Version | Previous Version | Graphics & Text | Print | Product List | Glossary Off
Versions: 1 2 3 4 5 6 7 8 9 10 11 12 13 14 15 16 17 18 19 20 21 22 23 24 25 26 27 28 29 30 31 32 33 34 35 36 37 38 39 40 41 42 43 44 45 46 47 48 49 50

000
ASUS43 KLMK 262210
RWRKY
KENTUCKY REGIONAL WEATHER ROUNDUP
NATIONAL WEATHER SERVICE LOUISVILLE KY
500 PM EST THU FEB 26 2015

NOTE "FAIR" INDICATES FEW OR NO CLOUDS BELOW 12,000 FEET
WITH NO SIGNIFICANT WEATHER AND/OR OBSTRUCTIONS TO VISIBILITY.

KYZ001>023-026-027-061>063-070>075-262300-
WESTERN AND SOUTH CENTRAL KENTUCKY

CITY           SKY/WX    TMP DP  RH WIND       PRES   REMARKS
PADUCAH        LGT SNOW  27  20  75 N12G21    30.24R WCI  17
HENDERSON      CLOUDY    27  18  69 NW12      30.22R WCI  16
OWENSBORO      FLURRIES  28  19  69 N15G21    30.21R WCI  16
HOPKINSVILLE   FLURRIES  30  24  77 NW9       30.17R WCI  22
BOWLING GREEN  CLOUDY    35  19  52 NW12      30.13R WCI  27
GLASGOW        CLOUDY    36  21  54 NW8       30.10R WCI  30
$$

KYZ024-025-028>034-038-045-046-053-262300-
NORTH CENTRAL KENTUCKY

CITY           SKY/WX    TMP DP  RH WIND       PRES   REMARKS
LOUISVILLE/SDF FLURRIES  26  16  65 N18       30.17R WCI  13
LOUISVILLE/LOU CLOUDY    25  13  60 NW15G22   30.17R WCI  13
FORT KNOX      FLURRIES  28  19  69 N9        30.12R WCI  19
$$

KYZ035>037-039>044-047>052-055>060-089>105-262300-
NORTHEAST KENTUCKY

CITY           SKY/WX    TMP DP  RH WIND       PRES   REMARKS
LEXINGTON      CLOUDY    30  17  58 NW12      30.08R WCI  20
COVINGTON      LGT SNOW  21  12  68 N12       30.13R WCI   9
FRANKFORT      CLOUDY    30  15  53 NW6       30.09R WCI  24
$$

KYZ054-064>069-076>088-106>120-262300-
SOUTHEAST KENTUCKY

CITY           SKY/WX    TMP DP  RH WIND       PRES   REMARKS
JACKSON        MOSUNNY   37  17  44 NW10      30.00R WCI  30
LONDON         MOSUNNY   38  16  40 NW8       30.03R WCI  32
SOMERSET       PTSUNNY   37  19  48 NW6       30.07R WCI  33
MIDDLESBORO    CLOUDY    37  25  62 NW5       30.02R WCI  34
MONTICELLO     PTCLDY    38  21  50 NW8       30.09R WCI  32
$$




USA.gov is the U.S. government's official web portal to all federal, state and local government web resources and services.